Regional Weather Roundup
Issued by NWS

Home | Current Version | Previous Version | Text Only | Print | Product List | Glossary Off
Versions: 1 2 3 4 5 6 7 8 9 10 11 12 13 14 15 16 17 18 19 20 21 22 23 24 25 26 27 28 29 30 31 32 33 34 35 36 37 38 39 40 41 42 43 44 45 46 47 48 49 50

000
ASUS43 KOAX 270902
RWRNE

WEATHER ROUNDUP FOR NEBRASKA
NATIONAL WEATHER SERVICE OMAHA NE
400 AM CDT WED JUL 27 2016

NOTES: SATELLITE DATA IS BEING USED TO AUGMENT CLOUD COVER ABOVE
       12000 FEET.
       "FAIR" INDICATES FEW OR NO CLOUDS BELOW 12,000 FEET WITH NO
       SIGNIFICANT WEATHER AND/OR OBSTRUCTIONS TO VISIBILITY.

  * THESE STATIONS DO NOT REPORT WEATHER SUCH AS RAIN...SNOW OR FOG.

NEZ001>004-019>022-054>056-271000-
NEBRASKA PANHANDLE

CITY           SKY/WX    TMP DP  RH WIND       PRES   REMARKS
SCOTTSBLUFF    LGT RAIN  67  57  70 SE17G23   30.06F
ALLIANCE       LGT RAIN  63  59  87 S12       30.14F
CHADRON        CLOUDY    63  58  83 CALM      30.11R
SIDNEY         CLOUDY    68  58  70 N13       30.15R
$$

NEZ057>060-069>072-079>082-271000-
SOUTHWEST NEBRASKA

CITY           SKY/WX    TMP DP  RH WIND       PRES   REMARKS
NORTH PLATTE   CLOUDY    61  60  97 E6        30.07F
IMPERIAL       CLOUDY    64  57  78 SE16      30.10S
LEXINGTON      MOCLDY    62  60  93 CALM      30.07F
MCCOOK         CLOUDY    64  59  83 SE10      30.08F
OGALLALA       CLOUDY    64  58  79 SE10      30.08F
$$

NEZ005>010-023>029-035>040-094-271000-
NORTH CENTRAL NEBRASKA

CITY           SKY/WX    TMP DP  RH WIND       PRES   REMARKS
VALENTINE      PTCLDY    61  58  90 MISG      30.06S
AINSWORTH      PTCLDY    62  59  90 SW7       30.02R
BROKEN BOW     CLOUDY    61  60  97 CALM      30.05F
O`NEILL        CLOUDY    67  62  83 E8        29.94F
ORD            CLOUDY    63  60  90 SW9       30.00R
THEDFORD       CLOUDY    63  60  90 S7        30.08F
$$

NEZ041-046>049-061>064-073>077-083>087-271000-
SOUTH CENTRAL NEBRASKA

CITY           SKY/WX    TMP DP  RH WIND       PRES   REMARKS
GRAND ISLAND   CLOUDY    70  58  65 S17       29.98F
AURORA         LGT RAIN  70  60  70 W23G35    30.07R
HASTINGS       HVY RAIN  66  61  84 VRB5      30.09F
HEBRON         CLOUDY    72  65  79 CALM      30.07F
HOLDREGE       CLOUDY    63  60  91 SE8       30.06F
KEARNEY *      CLOUDY    64   9  11 S13       30.02F
YORK           CLOUDY    70  63  78 CALM      30.03F
$$

NEZ011>018-030>034-042>045-271000-
NORTHEAST NEBRASKA

CITY           SKY/WX    TMP DP  RH WIND       PRES   REMARKS
NORFOLK        LGT RAIN  68  66  93 SE13      29.89F
ALBION         CLOUDY    65  63  93 SW5       29.96F
BLAIR          CLOUDY    69  67  92 CALM      30.02F
FREMONT        MOCLDY    72  64  77 SW5       30.01F
TEKAMAH        CLOUDY    68  66  93 S6        30.00F
WAYNE          CLOUDY    70  67  89 SE5       29.94F
$$

NEZ050>053-065>068-078-088>093-271000-
SOUTHEAST NEBRASKA

CITY           SKY/WX    TMP DP  RH WIND       PRES   REMARKS
LINCOLN        MOCLDY    73  66  78 W10       30.05S
OMAHA EPPLEY   CLOUDY    74  66  76 S5        30.02R
BEATRICE       CLOUDY    67  65  94 CALM      30.06R
FALLS CITY     PTCLDY    67  66  97 CALM      30.01R
NEBRASKA CITY  CLOUDY    68  68 100 W6        30.04R
PLATTSMOUTH    CLOUDY    68  67  96 SW3       30.04R
$$

NEZ044-045-051>053-067-271000-
OMAHA AREA

CITY           SKY/WX    TMP DP  RH WIND       PRES   REMARKS
OMAHA EPPLEY   CLOUDY    74  66  76 S5        30.02R
BLAIR          CLOUDY    69  67  92 CALM      30.02F
FREMONT        MOCLDY    72  64  77 SW5       30.01F
MILLARD        CLOUDY    73  67  82 CALM      30.02F
OFFUTT AFB     CLOUDY    70  69  96 W2        30.02R
PLATTSMOUTH    CLOUDY    68  67  96 SW3       30.04R
WAHOO          FAIR      71  66  85 SW7       30.02F
$$




USA.gov is the U.S. government's official web portal to all federal, state and local government web resources and services.